CX2SA-13 Weather Reports


time (UTC)temp
C
wind
direction
speed
KPH
gust
KPH
rain 1hr
cm
rain 24hr
cm
rain mn
cm
humidity
%
barometer
mb
20260508184445 16 360 25.7 35.4 0.00 0.00 0.00 49 1006.4
20260508182944 16 337 22.5 25.7 0.00 0.00 0.00 50 1006.4
20260508181445 15 225 14.5 27.4 0.00 0.00 0.00 52 1006.1
20260508175945 16 225 19.3 27.4 0.00 0.00 0.00 52 1006.1
20260508174444 16 247 20.9 22.5 0.00 0.00 0.00 53 1005.7
20260508172945 16 292 11.3 22.5 0.00 0.00 0.00 53 1006.4
20260508171443 15 247 14.5 19.3 0.00 0.00 0.00 56 1006.4
20260508165944 15 270 20.9 24.1 0.00 0.00 0.00 57 1006.4
20260508164445 15 225 16.1 0.0 0.00 0.00 0.00 56 1006.7
20260508162944 15 270 22.5 24.1 0.00 0.00 0.00 56 1007.4
20260508161444 14 270 17.7 22.5 0.00 0.00 0.00 58 1007.4
20260508155945 14 247 25.7 0.0 0.00 0.00 0.00 58 1007.4
20260508154444 15 202 16.1 19.3 0.00 0.00 0.00 57 1007.4
20260508152945 14 360 16.1 27.4 0.00 0.00 0.00 59 1007.7
20260508151446 13 292 12.9 25.7 0.00 0.00 0.00 61 1008.1
20260508145944 13 270 14.5 27.4 0.00 0.00 0.00 60 1008.1
20260508144445 13 270 14.5 22.5 0.00 0.00 0.00 62 1007.7
20260508142943 12 270 22.5 0.0 0.00 0.00 0.00 62 1008.1
20260508141444 12 315 22.5 0.0 0.00 0.00 0.00 62 1008.1
20260508135945 12 180 11.3 27.4 0.00 0.00 0.00 62 1008.4
20260508134444 12 292 17.7 19.3 0.00 0.00 0.00 64 1008.4
20260508132945 11 315 22.5 27.4 0.00 0.00 0.00 64 1008.1
20260508131445 11 270 19.3 27.4 0.00 0.00 0.00 64 1008.1
20260508125944 11 270 19.3 32.2 0.00 0.00 0.00 65 1008.4
20260508124445 11 270 12.9 22.5 0.00 0.00 0.00 65 1008.1
20260508122946 11 247 24.1 0.0 0.00 0.00 0.00 67 1007.7
20260508121444 10 270 30.6 0.0 0.00 0.00 0.00 67 1007.4
20260508115945 10 202 11.3 17.7 0.00 0.00 0.00 70 1007.1
20260508114444 10 270 17.7 0.0 0.00 0.00 0.00 73 1006.7
20260508112944 10 270 12.9 17.7 0.00 0.00 0.00 76 1007.1
20260508111445 9 270 11.3 12.9 0.00 0.00 0.00 77 1006.7
20260508105944 8 292 12.9 0.0 0.00 0.00 0.00 80 1006.7
20260508104445 8 270 6.4 12.9 0.00 0.00 0.00 82 1006.4
20260508102945 8 315 12.9 0.0 0.00 0.00 0.00 82 1005.7
20260508101444 8 270 8.0 9.7 0.00 0.00 0.00 83 1005.4
20260508095945 8 292 14.5 0.0 0.00 0.00 0.00 84 1005.4
20260508094443 9 247 12.9 0.0 0.00 0.00 0.00 83 1005.4
20260508092944 9 247 12.9 14.5 0.00 0.00 0.00 84 1004.7
20260508091445 9 270 16.1 17.7 0.00 0.00 0.00 86 1005.0
20260508085943 9 180 14.5 0.0 0.00 0.00 0.00 89 1005.0
20260508084444 9 270 6.4 9.7 0.00 0.00 0.00 91 1004.7
20260508082945 9 292 8.0 0.0 0.00 0.00 0.00 92 1004.7
20260508081444 9 270 11.3 12.9 0.00 0.00 0.00 92 1004.7
20260508075944 9 292 12.9 14.5 0.00 0.00 0.00 92 1004.4
20260508074445 10 270 9.7 12.9 0.00 0.00 0.00 91 1004.4
20260508072944 10 270 12.9 0.0 0.00 0.00 0.00 91 1004.4
20260508071445 10 247 11.3 14.5 0.00 0.00 0.00 92 1004.4
20260508065945 10 360 3.2 9.7 0.00 0.00 0.00 91 1004.7
20260508064444 10 247 9.7 0.0 0.00 0.00 0.00 88 1004.4
20260508062945 11 270 9.7 12.9 0.00 0.00 0.00 83 1004.7
20260508061443 11 270 14.5 20.9 0.00 0.00 0.00 83 1004.7
20260508055944 11 247 6.4 16.1 0.00 0.00 0.00 82 1004.7
20260508054445 11 270 12.9 17.7 0.00 0.00 0.00 83 1004.4
20260508052944 11 225 9.7 14.5 0.00 0.00 0.00 82 1004.4
20260508051444 11 225 17.7 0.0 0.00 0.00 0.00 84 1004.4
20260508045945 12 247 17.7 0.0 0.00 0.00 0.00 84 1004.4
20260508044444 12 225 22.5 0.0 0.00 0.00 0.00 84 1004.4
20260508042945 12 270 17.7 22.5 0.00 0.00 0.00 84 1004.0
20260508041445 12 225 6.4 19.3 0.00 0.00 0.00 85 1003.7
20260508035944 12 292 17.7 0.0 0.00 0.00 0.00 84 1003.7
20260508034445 12 315 9.7 17.7 0.00 0.00 0.00 83 1004.0
20260508032943 12 225 14.5 17.7 0.00 0.00 0.00 84 1004.0
20260508031449 12 270 11.3 17.7 0.00 0.00 0.00 84 1004.4
20260508025945 12 270 9.7 11.3 0.00 0.00 4.17 88 1004.0
20260508024443 12 270 9.7 0.0 0.00 0.00 4.17 88 1003.7
20260508022944 12 337 3.2 8.0 0.00 0.00 4.17 89 1003.7
20260508021445 12 112 17.7 0.0 0.00 0.00 4.17 90 1003.7
20260508015944 12 247 11.3 14.5 0.00 0.00 4.17 91 1003.7
20260508014444 12 315 12.9 16.1 0.00 0.00 4.17 92 1003.7
20260508012945 11 292 9.7 14.5 0.00 0.00 4.17 94 1003.0
20260508011444 11 247 8.0 11.3 0.00 0.00 4.17 95 1002.7
20260508005945 11 270 6.4 11.3 0.00 0.00 4.17 95 1002.0
20260508004445 11 247 12.9 0.0 0.00 0.00 4.17 95 1002.0
20260508002944 11 225 12.9 17.7 0.00 0.00 4.17 96 1002.0
20260508001445 12 202 11.3 12.9 0.00 0.00 4.17 96 1002.0
20260507235943 12 247 9.7 0.0 0.00 0.00 4.17 96 1003.0
20260507234444 12 225 4.8 8.0 0.00 0.00 4.17 96 1003.0
20260507232945 12 270 9.7 12.9 0.00 0.00 4.17 97 1003.0
20260507231444 12 22 11.3 14.5 0.00 0.00 4.17 97 1002.7
20260507225944 12 247 6.4 9.7 0.00 0.00 4.17 97 1003.0
20260507224445 12 180 4.8 14.5 0.00 0.00 4.17 97 1002.7
20260507222944 12 270 12.9 0.0 0.00 0.00 4.17 97 1003.0
20260507221445 12 202 3.2 4.8 0.00 0.00 4.17 97 1001.6
20260507215945 12 135 8.0 0.0 0.00 0.00 4.17 97 1003.0
20260507214445 13 112 4.8 9.7 0.00 0.00 4.11 96 1003.0
20260507212945 13 270 8.0 0.0 0.00 0.00 4.04 96 1005.0
20260507211443 13 270 8.0 16.1 0.00 0.00 4.04 96 1004.7
20260507205944 13 270 14.5 17.7 0.00 0.00 3.99 96 1004.7
20260507204445 13 225 12.9 19.3 0.00 0.00 3.99 96 1004.7
20260507202943 13 270 9.7 16.1 0.00 0.00 3.86 95 1003.0
20260507201444 14 225 11.3 14.5 0.00 0.00 3.73 93 1004.4
20260507195945 16 225 11.3 14.5 0.00 0.00 3.61 81 1003.0
20260507194444 16 157 3.2 9.7 0.00 0.00 3.61 85 1000.0
20260507192944 16 292 9.7 0.0 0.00 0.00 3.61 85 1000.0
20260507191445 17 270 9.7 12.9 0.00 0.00 3.61 83 998.9
20260507185944 17 270 8.0 14.5 0.00 0.00 3.61 85 998.9